sat.trackr.live / text

‹ back to catalog

STARLINK-4321

NORAD 53082 · 2022-077AR

PAYLOAD ACTIVE UNKNOWN

§ Identity

Operator
Country
US
Launch date
2022-07-11
Launch site
AFWTR
Launch vehicle
Mass (kg)
RCS (m²)

Purposes: comms

External: N2YO · Heavens-Above · Gunter

§ Orbital elements

Epoch: 2026-09-19T16:59:49.470144Z

Period
93.91 min
Inclination
97.2844°
Eccentricity
0.0002090
Mean motion
15.33430225 rev/d
Perigee alt
464.2 km
Apogee alt
467.0 km
Semi-major
6,843.7 km
B*
3.4656e-6
RAAN
77.5216°
Arg perigee
89.5141°
Mean anomaly
270.6341°
Rev number
23,017

§ Raw data

STARLINK-43211 53082U 22077AR  26262.70821146  .00000037  00000+0  34656-5 0  99912 53082  97.2844  77.5216 0002090  89.5141 270.6341 15.33430225230175

JSON: /api/v1/satellites/53082 · /tle

For live sub-satellite position, see the globe view (requires WebGL).

§ Visibility from observer

Set your observer location to see the next 7 days of passes ≥ 10°. The values pass through the URL so the page stays shareable.

No JS? Fill the form by hand. The geolocation button needs JavaScript.